![]() |
EMODnet Physics ERDDAP
Easier access to scientific data |
log in|
Brought to you by EMODnet Physics |
| Dataset Title: | NDBC - Collection of dew point temperature (DEWT) TimeSeries - IN SITU MultiPointTimeSeriesObservation
|
| Institution: | NDBC (Dataset ID: TS_DEWT_NDBC) |
| Information: | Summary
| License
| FGDC
| ISO 19115
| Metadata
| Background
| Subset
| Data Access Form
| Make a graph
|
| Name | Last modified | Size | Description | |
|---|---|---|---|---|
| Parent Directory | - | - | ||
| OBXC1_TS_DEWT_012015.nc | 30-Dec-2024 09:03 | 4201075 | ||
| OBXC1_TS_DEWT_012016.nc | 30-Dec-2024 09:07 | 3062901 | ||
| OBXC1_TS_DEWT_012017.nc | 30-Dec-2024 09:11 | 1112021 | ||
| OBXC1_TS_DEWT_012018.nc | 30-Dec-2024 09:16 | 1112263 | ||
| OBXC1_TS_DEWT_012019.nc | 30-Dec-2024 09:20 | 1112712 | ||
| OBXC1_TS_DEWT_012020.nc | 30-Dec-2024 09:25 | 4607946 | ||
| OBXC1_TS_DEWT_012021.nc | 30-Dec-2024 09:29 | 1264238 | ||
| OBXC1_TS_DEWT_012023.nc | 30-Dec-2024 09:37 | 1263201 | ||
| OBXC1_TS_DEWT_012025.nc | 18-Jan-2026 13:34 | 1116595 | ||
| OBXC1_TS_DEWT_012026.nc | 02-Feb-2026 14:08 | 5308793 | ||
| OBXC1_TS_DEWT_022015.nc | 30-Dec-2024 09:03 | 1110408 | ||
| OBXC1_TS_DEWT_022016.nc | 30-Dec-2024 09:08 | 1109691 | ||
| OBXC1_TS_DEWT_022017.nc | 30-Dec-2024 09:12 | 1109284 | ||
| OBXC1_TS_DEWT_022018.nc | 30-Dec-2024 09:16 | 5153399 | ||
| OBXC1_TS_DEWT_022019.nc | 30-Dec-2024 09:21 | 1112209 | ||
| OBXC1_TS_DEWT_022020.nc | 30-Dec-2024 09:25 | 1260102 | ||
| OBXC1_TS_DEWT_022021.nc | 30-Dec-2024 09:29 | 1257941 | ||
| OBXC1_TS_DEWT_022023.nc | 30-Dec-2024 09:37 | 4775660 | ||
| OBXC1_TS_DEWT_022025.nc | 18-Jan-2026 13:35 | 1262837 | ||
| OBXC1_TS_DEWT_022026.nc | 01-Mar-2026 12:23 | 1258874 | ||
| OBXC1_TS_DEWT_032014.nc | 30-Dec-2024 09:00 | 1261378 | ||
| OBXC1_TS_DEWT_032015.nc | 30-Dec-2024 09:04 | 5314419 | ||
| OBXC1_TS_DEWT_032016.nc | 30-Dec-2024 09:08 | 1105571 | ||
| OBXC1_TS_DEWT_032017.nc | 30-Dec-2024 09:12 | 1105522 | ||
| OBXC1_TS_DEWT_032018.nc | 30-Dec-2024 09:17 | 1110212 | ||
| OBXC1_TS_DEWT_032019.nc | 30-Dec-2024 09:21 | 4512396 | ||
| OBXC1_TS_DEWT_032020.nc | 30-Dec-2024 09:25 | 1113218 | ||
| OBXC1_TS_DEWT_032021.nc | 30-Dec-2024 09:30 | 1260052 | ||
| OBXC1_TS_DEWT_032023.nc | 30-Dec-2024 09:37 | 1260672 | ||
| OBXC1_TS_DEWT_032025.nc | 18-Jan-2026 13:35 | 5306350 | ||
| OBXC1_TS_DEWT_032026.nc | 26-Mar-2026 14:05 | 1112979 | ||
| OBXC1_TS_DEWT_042014.nc | 30-Dec-2024 09:00 | 1114807 | ||
| OBXC1_TS_DEWT_042015.nc | 30-Dec-2024 09:04 | 1107094 | ||
| OBXC1_TS_DEWT_042017.nc | 30-Dec-2024 09:12 | 5762454 | ||
| OBXC1_TS_DEWT_042018.nc | 30-Dec-2024 09:17 | 5272781 | ||
| OBXC1_TS_DEWT_042019.nc | 30-Dec-2024 09:21 | 1264905 | ||
| OBXC1_TS_DEWT_042020.nc | 30-Dec-2024 09:26 | 1263658 | ||
| OBXC1_TS_DEWT_042021.nc | 30-Dec-2024 09:30 | 1019330 | ||
| OBXC1_TS_DEWT_042023.nc | 30-Dec-2024 09:38 | 5551192 | ||
| OBXC1_TS_DEWT_042025.nc | 18-Jan-2026 13:36 | 5278341 | ||
| OBXC1_TS_DEWT_052014.nc | 30-Dec-2024 09:00 | 434702 | ||
| OBXC1_TS_DEWT_052015.nc | 30-Dec-2024 09:04 | 450574 | ||
| OBXC1_TS_DEWT_052016.nc | 30-Dec-2024 09:08 | 443513 | ||
| OBXC1_TS_DEWT_052017.nc | 30-Dec-2024 09:13 | 443955 | ||
| OBXC1_TS_DEWT_052018.nc | 30-Dec-2024 09:17 | 450156 | ||
| OBXC1_TS_DEWT_052019.nc | 30-Dec-2024 09:22 | 444706 | ||
| OBXC1_TS_DEWT_052020.nc | 30-Dec-2024 09:26 | 443889 | ||
| OBXC1_TS_DEWT_052021.nc | 30-Dec-2024 09:30 | 442387 | ||
| OBXC1_TS_DEWT_052023.nc | 30-Dec-2024 09:38 | 448339 | ||
| OBXC1_TS_DEWT_052025.nc | 18-Jan-2026 13:36 | 442901 | ||
| OBXC1_TS_DEWT_062014.nc | 30-Dec-2024 09:01 | 445278 | ||
| OBXC1_TS_DEWT_062015.nc | 30-Dec-2024 09:05 | 442923 | ||
| OBXC1_TS_DEWT_062016.nc | 30-Dec-2024 09:09 | 445193 | ||
| OBXC1_TS_DEWT_062017.nc | 30-Dec-2024 09:13 | 437294 | ||
| OBXC1_TS_DEWT_062018.nc | 30-Dec-2024 09:18 | 446458 | ||
| OBXC1_TS_DEWT_062019.nc | 30-Dec-2024 09:22 | 450433 | ||
| OBXC1_TS_DEWT_062020.nc | 30-Dec-2024 09:26 | 447844 | ||
| OBXC1_TS_DEWT_062021.nc | 30-Dec-2024 09:31 | 448977 | ||
| OBXC1_TS_DEWT_062022.nc | 30-Dec-2024 09:34 | 451592 | ||
| OBXC1_TS_DEWT_062023.nc | 30-Dec-2024 09:39 | 421553 | ||
| OBXC1_TS_DEWT_062025.nc | 18-Jan-2026 13:37 | 448062 | ||
| OBXC1_TS_DEWT_072014.nc | 30-Dec-2024 09:01 | 434760 | ||
| OBXC1_TS_DEWT_072015.nc | 30-Dec-2024 09:05 | 448378 | ||
| OBXC1_TS_DEWT_072016.nc | 30-Dec-2024 09:09 | 449976 | ||
| OBXC1_TS_DEWT_072017.nc | 30-Dec-2024 09:14 | 440264 | ||
| OBXC1_TS_DEWT_072018.nc | 30-Dec-2024 09:18 | 449720 | ||
| OBXC1_TS_DEWT_072019.nc | 30-Dec-2024 09:22 | 448917 | ||
| OBXC1_TS_DEWT_072020.nc | 30-Dec-2024 09:27 | 440744 | ||
| OBXC1_TS_DEWT_072022.nc | 30-Dec-2024 09:35 | 446753 | ||
| OBXC1_TS_DEWT_072023.nc | 30-Dec-2024 09:39 | 435121 | ||
| OBXC1_TS_DEWT_072025.nc | 18-Jan-2026 13:37 | 448130 | ||
| OBXC1_TS_DEWT_082014.nc | 30-Dec-2024 09:01 | 448827 | ||
| OBXC1_TS_DEWT_082015.nc | 30-Dec-2024 09:06 | 427985 | ||
| OBXC1_TS_DEWT_082016.nc | 30-Dec-2024 09:09 | 450186 | ||
| OBXC1_TS_DEWT_082017.nc | 30-Dec-2024 09:14 | 441471 | ||
| OBXC1_TS_DEWT_082018.nc | 30-Dec-2024 09:18 | 448946 | ||
| OBXC1_TS_DEWT_082019.nc | 30-Dec-2024 09:23 | 445246 | ||
| OBXC1_TS_DEWT_082020.nc | 30-Dec-2024 09:27 | 428252 | ||
| OBXC1_TS_DEWT_082022.nc | 30-Dec-2024 09:35 | 447378 | ||
| OBXC1_TS_DEWT_082023.nc | 30-Dec-2024 09:39 | 448942 | ||
| OBXC1_TS_DEWT_082025.nc | 18-Jan-2026 13:37 | 447709 | ||
| OBXC1_TS_DEWT_092014.nc | 30-Dec-2024 09:02 | 448838 | ||
| OBXC1_TS_DEWT_092015.nc | 30-Dec-2024 09:06 | 449970 | ||
| OBXC1_TS_DEWT_092016.nc | 30-Dec-2024 09:10 | 444206 | ||
| OBXC1_TS_DEWT_092017.nc | 30-Dec-2024 09:14 | 448712 | ||
| OBXC1_TS_DEWT_092018.nc | 30-Dec-2024 09:19 | 441097 | ||
| OBXC1_TS_DEWT_092019.nc | 30-Dec-2024 09:23 | 448750 | ||
| OBXC1_TS_DEWT_092020.nc | 30-Dec-2024 09:28 | 447268 | ||
| OBXC1_TS_DEWT_092022.nc | 30-Dec-2024 09:35 | 440927 | ||
| OBXC1_TS_DEWT_092025.nc | 18-Jan-2026 13:38 | 449066 | ||
| OBXC1_TS_DEWT_102014.nc | 30-Dec-2024 09:02 | 450032 | ||
| OBXC1_TS_DEWT_102015.nc | 30-Dec-2024 09:06 | 450818 | ||
| OBXC1_TS_DEWT_102016.nc | 30-Dec-2024 09:10 | 446357 | ||
| OBXC1_TS_DEWT_102017.nc | 30-Dec-2024 09:15 | 440046 | ||
| OBXC1_TS_DEWT_102018.nc | 30-Dec-2024 09:19 | 448734 | ||
| OBXC1_TS_DEWT_102019.nc | 30-Dec-2024 09:23 | 446700 | ||
| OBXC1_TS_DEWT_102020.nc | 30-Dec-2024 09:28 | 448954 | ||
| OBXC1_TS_DEWT_102022.nc | 30-Dec-2024 09:36 | 448950 | ||
| OBXC1_TS_DEWT_102024.nc | 18-Jan-2026 13:33 | 428440 | ||
| OBXC1_TS_DEWT_102025.nc | 18-Jan-2026 13:38 | 444598 | ||
| OBXC1_TS_DEWT_112014.nc | 30-Dec-2024 09:02 | 447688 | ||
| OBXC1_TS_DEWT_112015.nc | 30-Dec-2024 09:07 | 428634 | ||
| OBXC1_TS_DEWT_112016.nc | 30-Dec-2024 09:10 | 447742 | ||
| OBXC1_TS_DEWT_112017.nc | 30-Dec-2024 09:15 | 421652 | ||
| OBXC1_TS_DEWT_112018.nc | 30-Dec-2024 09:20 | 449947 | ||
| OBXC1_TS_DEWT_112019.nc | 30-Dec-2024 09:24 | 450200 | ||
| OBXC1_TS_DEWT_112020.nc | 30-Dec-2024 09:28 | 449378 | ||
| OBXC1_TS_DEWT_112022.nc | 30-Dec-2024 09:36 | 448889 | ||
| OBXC1_TS_DEWT_112024.nc | 18-Jan-2026 13:33 | 419130 | ||
| OBXC1_TS_DEWT_112025.nc | 18-Jan-2026 13:39 | 447523 | ||
| OBXC1_TS_DEWT_122014.nc | 30-Dec-2024 09:03 | 425267 | ||
| OBXC1_TS_DEWT_122015.nc | 30-Dec-2024 09:07 | 450633 | ||
| OBXC1_TS_DEWT_122016.nc | 30-Dec-2024 09:11 | 451386 | ||
| OBXC1_TS_DEWT_122017.nc | 30-Dec-2024 09:15 | 445158 | ||
| OBXC1_TS_DEWT_122018.nc | 30-Dec-2024 09:20 | 444271 | ||
| OBXC1_TS_DEWT_122019.nc | 30-Dec-2024 09:24 | 419108 | ||
| OBXC1_TS_DEWT_122020.nc | 30-Dec-2024 09:29 | 448579 | ||
| OBXC1_TS_DEWT_122022.nc | 30-Dec-2024 09:36 | 429743 | ||
| OBXC1_TS_DEWT_122024.nc | 18-Jan-2026 13:34 | 444539 | ||
| OBXC1_TS_DEWT_122025.nc | 18-Jan-2026 13:39 | 450623 | ||